Regional Weather Roundup
Issued by NWS

Home | Current Version | Previous Version | Text Only | Print | Product List | Glossary Off
Versions: 1 2 3 4 5 6 7 8 9 10 11 12 13 14 15 16 17 18 19 20 21 22 23 24 25 26 27 28 29 30 31 32 33 34 35 36 37 38 39 40 41 42 43 44 45 46 47 48 49 50

000
ASUS43 KOAX 191602
RWRNE

WEATHER ROUNDUP FOR NEBRASKA
NATIONAL WEATHER SERVICE OMAHA NE
1100 AM CDT FRI SEP 19 2014

NOTES: SATELLITE DATA IS BEING USED TO AUGMENT CLOUD COVER ABOVE
       12000 FEET.
       "FAIR" INDICATES FEW OR NO CLOUDS BELOW 12,000 FEET WITH NO
       SIGNIFICANT WEATHER AND/OR OBSTRUCTIONS TO VISIBILITY.

  * THESE STATIONS DO NOT REPORT WEATHER SUCH AS RAIN...SNOW OR FOG.

NEZ001>004-019>022-054>056-191700-
NEBRASKA PANHANDLE

CITY           SKY/WX    TMP DP  RH WIND       PRES   REMARKS
SCOTTSBLUFF    SUNNY     73  52  47 NW9       29.94R
ALLIANCE       SUNNY     72  56  57 NW7       29.90S
CHADRON        MOSUNNY   76  54  46 SW5       29.86R
KIMBALL        SUNNY     72  49  43 NW7       29.98F
SIDNEY         SUNNY     76  50  40 NW10      29.96S
$$

NEZ057>060-069>072-079>082-191700-
SOUTHWEST NEBRASKA

CITY           SKY/WX    TMP DP  RH WIND       PRES   REMARKS
NORTH PLATTE   SUNNY     72  61  68 NW8       29.89R
IMPERIAL       SUNNY     78  59  51 W8G17     29.92R
LEXINGTON      SUNNY     75  65  71 SW10G18   29.89R
MCCOOK         SUNNY     79  63  57 SW8       29.89F
OGALLALA       SUNNY     73  61  65 W8        29.89F
$$

NEZ005>010-023>029-035>040-094-191700-
NORTH CENTRAL NEBRASKA

CITY           SKY/WX    TMP DP  RH WIND       PRES   REMARKS
VALENTINE      MOSUNNY   74  61  63 W9        29.79S
AINSWORTH      MOSUNNY   75  60  59 SW15      29.80S
BROKEN BOW     SUNNY     77  62  59 SW13      29.87S
O`NEILL        SUNNY     76  64  67 SW13G24   29.79S
ORD            SUNNY     74  64  71 SW12      29.84F
THEDFORD       SUNNY     75  59  56 SW16      29.84F
$$

NEZ041-046>049-061>064-073>077-083>087-191700-
SOUTH CENTRAL NEBRASKA

CITY           SKY/WX    TMP DP  RH WIND       PRES   REMARKS
GRAND ISLAND   SUNNY     77  63  61 S16       29.89S
AURORA         SUNNY     75  64  66 S15       29.89F
HASTINGS       SUNNY     76  61  59 S13       29.91S
HEBRON         SUNNY     77  62  59 SW12G18   29.93F
KEARNEY *      SUNNY     75  64  69 S20       29.90S
YORK           SUNNY     73  66  78 S12       29.90F
$$

NEZ011>018-030>034-042>045-191700-
NORTHEAST NEBRASKA

CITY           SKY/WX    TMP DP  RH WIND       PRES   REMARKS
NORFOLK        MOSUNNY   76  66  71 S10       29.84S
ALBION         MOSUNNY   74  64  69 S15       29.85F
BLAIR          PTSUNNY   73  65  75 S15       29.91S
COLUMBUS *     MOSUNNY   75  64  69 SW14G21   29.89S
FREMONT        SUNNY     73  65  76 S13G21    29.90S
TEKAMAH        MOSUNNY   75  65  70 S21G26    29.88F
WAYNE          MOSUNNY   75  65  71 SW17G25   29.85R
$$

NEZ050>053-065>068-078-088>093-191700-
SOUTHEAST NEBRASKA

CITY           SKY/WX    TMP DP  RH WIND       PRES   REMARKS
LINCOLN        SUNNY     75  65  70 S15       29.91F
OMAHA EPPLEY   PTSUNNY   70  63  78 S17       29.92S HAZE
BEATRICE       SUNNY     76  66  71 S15       29.95S
FALLS CITY     CLOUDY    66  63  90 S13       29.98S
NEBRASKA CITY  CLOUDY    67  64  90 S17       29.96F
PLATTSMOUTH    PTSUNNY   69  63  80 S16G22    29.94S
$$

NEZ044-045-051>053-067-191700-
OMAHA AREA

CITY           SKY/WX    TMP DP  RH WIND       PRES   REMARKS
OMAHA EPPLEY   PTSUNNY   70  63  78 S17       29.92S HAZE
BLAIR          PTSUNNY   73  65  75 S15       29.91S
FREMONT        SUNNY     73  65  76 S13G21    29.90S
MILLARD        MOSUNNY   73  66  77 S13G21    29.91F
OFFUTT AFB     CLOUDY    71  70  98 S14       29.93S
PLATTSMOUTH    PTSUNNY   69  63  80 S16G22    29.94S
WAHOO          FAIR      74  64  70 S15       29.90S
$$


USA.gov is the U.S. government's official web portal to all federal, state and local government web resources and services.